Dewpoint
26 27 27 26 25 26 25 24 22 19 20 24 30 32 40 41 40 39 39 40 42 45 48 51 53 53 52 54 55 55 55 55 55 56 57 57 57 56 56 55 54 54 55 55
23 25 24 22 22 21 21 23 23 24 27 32 35 38 41 39 37 36 36 37 39 40 42 43 45 47 47 50 55 55 55 55 55 56 56 56 57 57 57 56 55 54 53 54
21 23 22 16 22 22 23 28 31 27 30 32 38 40 40 37 35 34 34 34 35 37 38 39 40 40 42 42 43 44 44 44 46 50 50 51 54 55 56 56 57 56 55 54
22 22 6 18 23 31 33 32 32 33 35 35 39 37 36 37 35 33 33 33 33 34 36 35 36 36 37 37 37 38 38 38 39 42 42 43 44 46 48 47 45 46 44 47
22 19 17 20 33 30 32 29 35 34 35 36 36 33 33 35 35 34 33 32 32 32 33 35 33 33 33 32 33 33 33 34 35 37 37 38 39 40 42 40 37 36 35 36
23 15 12 15 33 36 37 29 34 33 32 39 36 32 29 34 34 33 33 33 32 31 31 32 33 32 31 30 30 30 31 31 32 33 34 34 36 36 35 34 33 32 31 32
21 19 20 33 35 38 28 29 34 33 31 29 27 30 32 33 31 32 32 32 32 30 29 29 32 32 31 29 29 29 30 31 31 31 32 32 33 33 33 32 31 30 29 30
22 22 18 34 34 31 35 35 34 32 31 29 28 28 28 29 29 29 29 30 30 28 28 28 28 30 29 28 28 28 29 28 29 29 30 30 31 31 31 31 30 29 29 29
30 28 32 33 31 33 34 33 33 32 32 29 27 27 27 26 26 26 27 27 27 26 26 27 27 27 28 27 27 27 26 26 26 27 27 28 29 30 30 29 29 28 28 28
28 29 28 30 31 31 30 30 30 31 30 29 26 26 25 24 23 22 22 23 23 23 24 24 26 26 28 29 27 26 25 24 25 25 25 26 26 27 27 28 28 27 27 27
30 31 30 27 29 29 29 29 28 28 28 26 24 23 22 22 22 22 21 21 21 21 21 22 23 23 24 25 26 25 24 24 23 23 24 24 25 25 26 27 26 25 25 25
23 29 26 25 27 28 25 25 25 23 21 20 20 20 19 19 18 18 18 19 19 19 20 21 21 22 22 23 24 23 23 23 23 23 22 21 20 21 25 25 26 26 26 26
30 29 27 26 26 27 23 22 22 19 18 17 17 17 17 17 17 18 16 16 17 17 18 19 19 19 21 21 21 21 22 22 21 21 21 19 19 18 17 19 21 22 23 23
31 30 25 26 23 25 22 20 19 16 16 16 15 15 14 14 14 14 15 15 15 15 16 17 17 19 22 22 21 20 19 18 20 20 19 19 19 18 18 18 17 16 16 19
26 26 25 24 21 19 18 17 16 16 15 15 15 14 14 13 13 13 14 14 14 14 14 15 15 17 20 20 19 20 19 18 19 19 18 17 17 17 15 15 14 13 14 12
22 20 19 17 17 18 18 15 15 15 14 14 13 13 13 12 11 11 11 11 11 11 12 12 13 15 17 18 19 18 18 16 17 18 17 17 15 14 13 12 11 10 9 9
21 19 18 16 16 16 16 15 14 13 13 12 13 13 11 10 8 8 8 9 9 9 11 12 11 12 14 14 17 18 18 17 15 16 15 14 14 12 11 10 8 7 7 6
18 18 17 17 15 15 15 14 13 12 11 10 8 6 5 4 5 5 4 6 7 8 8 9 13 12 13 14 15 16 16 15 14 13 12 12 11 9 9 8 6 6 6 4
17 16 15 15 15 14 13 12 11 9 8 7 5 2 1 0 2 2 3 4 5 6 7 9 12 11 11 13 12 13 13 13 12 10 10 8 9 8 8 8 6 6 5 4
14 13 12 12 12 11 9 8 9 6 5 4 2 3 3 -0 -2 1 4 5 6 7 8 8 9 9 9 7 8 8 11 12 9 9 9 8 9 8 7 4 5 5 6 4
10 10 9 7 5 4 4 5 6 4 2 2 4 0 -0 0 1 1 5 5 7 7 7 6 6 6 5 4 5 9 9 9 8 7 7 7 7 6 6 5 5 5 5 5
8 7 6 6 7 5 3 5 4 2 2 -1 -5 -3 1 4 3 4 2 6 7 4 5 5 3 -1 2 5 6 8 6 6 6 6 5 5 5 5 4 4 3 3 3 3
8 8 8 7 8 7 5 5 2 3 2 1 2 4 6 6 6 4 3 5 7 5 5 5 -1 -3 -3 5 5 5 5 4 4 3 3 3 3 3 3 2 2 2 2 2
10 10 9 7 8 10 10 10 10 8 5 6 4 1 7 7 8 8 5 -0 -3 1 4 4 2 -3 -2 4 3 3 3 3 3 3 3 -6 2 0 2 1 1 2 -0 -2
11 10 10 10 11 12 10 9 8 8 9 8 8 9 8 7 8 8 8 8 2 3 7 -5 -6 -6 5 5 4 3 3 3 3 3 3 3 3 2 2 1 -1 0 -1 -2
14 14 14 14 14 14 14 13 12 11 11 10 10 9 7 6 7 7 7 3 6 3 8 8 5 4 4 4 4 3 3 3 2 2 0 1 1 1 0 -1 -1 -1 -1 -2
15 13 12 11 10 10 10 9 11 11 10 11 11 11 8 8 7 5 3 8 7 6 7 6 5 3 5 5 5 4 3 4 1 3 2 1 0 1 0 0 0 -1 -2 -4
Lifted_Index
3 3 3 3 3 4 4 5 5 4 4 4 4 4 3 2 2 2 1 -0 -1 -0 -0 -1 -1 -1 -0 1 1 1 1 1 1 1 1 1 1 2 2 2 2 2 2 2
3 3 3 3 3 4 4 5 5 5 4 4 4 3 3 2 2 2 1 -0 -0 -0 -0 -0 -1 -1 -1 0 1 0 0 0 1 1 1 1 1 1 1 2 2 2 2 2
2 2 3 3 4 4 4 4 4 5 5 4 3 3 2 2 3 3 2 1 0 0 0 -0 -1 -1 -1 -0 -0 -0 -0 -0 0 0 0 0 0 0 1 1 1 1 1 1
1 2 2 3 3 3 4 4 4 4 4 4 3 3 3 3 3 4 4 3 3 2 2 1 0 -0 -0 -0 0 0 0 0 0 -0 -0 -0 -0 -0 -0 0 0 0 1 1
2 2 2 3 3 3 3 4 4 5 4 4 3 3 3 4 5 5 6 6 6 5 4 3 2 1 1 0 1 1 1 1 1 0 0 0 0 0 0 0 0 0 1 1
2 2 2 3 3 3 3 4 4 5 4 3 3 3 4 5 6 7 7 8 9 8 7 6 5 4 3 2 2 2 2 2 2 2 2 1 1 1 2 2 1 1 1 1
3 2 3 3 4 4 3 4 5 6 5 4 4 4 5 7 7 8 8 9 9 9 8 8 7 6 5 5 5 5 5 5 5 4 4 4 4 4 4 4 3 3 3 3
3 3 3 4 4 4 4 4 5 6 6 6 6 6 7 7 8 8 8 9 9 9 9 9 9 8 7 7 8 8 8 8 7 7 6 6 6 6 6 6 5 5 5 5
3 3 3 4 5 5 5 4 5 5 6 6 6 7 7 8 8 9 9 9 9 9 9 9 9 9 9 10 11 10 9 9 9 9 9 8 8 7 7 7 7 7 6 6
3 3 4 4 5 6 5 5 5 5 5 6 6 7 7 8 9 9 10 10 10 10 10 10 10 11 11 12 13 12 11 10 10 10 10 10 10 9 9 9 9 8 8 8
3 3 4 4 5 6 6 6 6 6 6 6 6 6 7 8 9 9 10 11 12 11 11 12 13 13 14 15 15 14 13 12 12 12 12 12 12 12 12 13 12 12 11 12
3 4 4 5 6 7 7 6 6 6 6 7 7 7 7 8 9 10 11 12 12 13 13 14 15 15 16 17 16 15 13 13 13 13 13 13 13 14 15 16 16 16 15 15
5 5 5 5 6 7 7 7 7 7 7 8 8 8 9 9 10 11 12 13 13 14 14 15 15 15 16 17 17 15 14 14 14 15 15 15 15 14 15 16 17 17 17 18
7 6 6 6 7 7 8 8 7 8 8 8 9 10 10 10 11 12 13 14 15 15 15 15 15 15 17 17 17 16 16 16 16 16 16 16 16 15 15 15 16 16 17 18
7 7 7 7 7 8 8 8 8 8 9 9 10 11 11 12 12 13 14 15 15 15 15 15 15 16 17 18 17 17 17 17 17 17 17 17 17 16 16 16 16 16 17 18
6 7 7 7 8 8 9 9 9 9 10 11 11 12 13 13 14 15 16 16 16 16 16 16 17 18 19 19 19 18 18 18 18 18 18 18 18 17 17 17 17 18 18 19
7 7 8 8 8 9 9 10 11 11 12 12 13 14 14 15 15 16 16 17 17 17 18 19 19 20 21 21 21 21 20 20 20 20 20 19 19 19 19 20 20 20 20 21
9 9 9 10 10 10 11 12 13 13 14 14 15 15 16 16 16 17 17 18 18 19 20 21 22 22 23 23 22 22 22 22 21 21 21 21 21 21 21 21 22 22 22 23
11 11 12 12 12 12 13 14 14 15 15 16 16 16 16 16 17 18 18 19 19 19 21 22 23 23 23 23 23 23 22 22 22 22 22 22 22 22 22 22 22 23 23 23
12 12 13 13 14 14 14 15 15 16 16 16 16 16 17 17 18 19 19 19 19 20 22 23 23 23 23 23 23 23 22 22 22 22 22 22 22 22 22 23 23 23 23 23
12 12 13 13 14 14 15 15 16 16 16 17 17 17 18 18 19 19 19 19 20 22 23 23 23 23 23 23 23 23 22 22 22 22 22 22 22 22 22 22 23 23 23 23
12 13 13 14 14 14 15 16 16 17 17 18 18 18 18 19 19 19 19 20 22 23 23 23 23 23 23 23 23 22 22 22 22 22 22 22 22 22 22 22 22 22 22 22
13 14 14 14 15 15 16 17 18 18 19 19 19 19 19 19 19 19 20 21 23 23 23 23 23 23 23 23 22 22 22 22 22 21 21 21 21 21 21 21 21 21 21 21
14 15 15 15 16 16 17 18 19 19 19 20 20 20 20 20 20 20 21 22 23 23 23 23 23 23 23 22 22 22 21 21 21 21 21 20 20 20 20 20 20 20 20 20
15 15 16 16 17 17 17 18 18 19 19 19 19 20 20 20 20 21 22 22 22 22 22 22 23 22 22 22 21 21 21 20 20 20 20 20 19 19 19 19 19 19 19 19
16 16 16 17 17 17 18 18 17 18 18 18 18 19 20 20 20 20 21 21 21 21 21 21 21 21 21 21 20 20 20 20 20 20 19 19 19 19 19 19 19 19 19 19
16 16 16 17 17 18 18 17 17 17 17 17 18 19 19 19 20 20 20 20 20 20 20 20 20 20 20 20 20 20 20 20 20 20 19 19 19 19 19 19 19 19 19 19